P/2012 US27 ( Siding Spring )

Japanese version
Home page
Updated on June 9, 2013

---------------------------------------------------------------------

* Profile

Discovery Date October 17, 2012
Magnitude 19.1 mag
Discoverer Robert H. McNaught (Siding Spring)

* Pictures

* Orbital Elements

Epoch 2013 Jan. 28.0 TT = JDT 2456320.5
T 2013 Feb. 8.55537 TT                                  MPC
q   1.8208469            (2000.0)            P               Q
n   0.08355044     Peri.    1.26877     +0.64019910     -0.60023666
a   5.1820734      Node    49.20664     +0.69912280     +0.19656873
e   0.6486258      Incl.   39.29258     +0.31839036     +0.77529135
P  11.8
From 294 observations 2012 Oct. 17-2013 Apr. 18, mean residual 0".4.

* Magnitudes Graph

        m1 = 5.7 + 5 log d + 35.0 log r(t - 15)

---------------------------------------------------------------------

The orbital elements are published on M.P.E.C. 2013-J25.
The magnitudes graphs are made with Comet for Windows.

---------------------------------------------------------------------

Copyright(C) Seiichi Yoshida (comet@aerith.net). All rights reserved.